Presure
224 189 207 170 186 208 179 191 215 172 223 212 195 194 201 172 210 177 193 160 213 179 207 214 243 232 224 220 210 213 205 205 213 211 222 262 266 322 267 254 238 253 254 248 239
238 168 179 183 177 171 173 170 204 225 177 179 202 172 193 176 192 196 194 195 200 193 205 209 224 225 213 219 214 201 207 205 201 222 214 220 245 307 254 256 231 243 248 234 240
210 174 200 207 182 191 175 150 200 200 148 190 184 182 183 200 201 207 197 206 188 190 192 192 225 220 196 206 206 209 207 204 195 223 192 210 235 272 230 239 250 241 231 229 233
178 211 192 189 186 189 152 179 214 183 206 208 167 200 214 201 199 202 149 199 197 191 203 202 189 211 208 209 207 209 198 194 214 204 206 220 255 286 239 223 234 242 231 231 232
190 187 206 192 189 196 206 204 190 201 201 214 186 169 216 177 201 187 186 188 193 198 201 203 209 213 213 208 188 194 197 188 193 178 202 196 218 267 252 201 213 225 226 208 227
169 193 197 161 197 206 213 206 225 204 211 206 205 207 174 191 202 192 193 192 187 184 192 196 200 207 209 199 196 188 189 189 167 181 200 194 216 240 257 224 217 224 220 227 213
337 247 269 263 218 238 246 208 250 216 202 217 183 193 206 197 201 183 182 185 199 188 204 196 212 182 208 193 197 198 188 162 178 197 187 196 227 226 291 247 234 216 228 246 221
323 284 265 265 254 232 241 236 227 228 219 157 218 227 206 205 194 191 196 191 197 188 194 183 189 197 187 205 182 198 188 187 155 177 178 204 197 210 232 275 249 230 221 231 238
290 301 263 251 199 242 237 227 234 206 222 208 193 213 200 201 193 187 181 181 190 188 192 190 186 189 190 176 187 187 184 189 176 179 180 186 180 209 208 281 273 256 221 244 252
288 252 242 225 150 218 239 223 220 212 200 217 213 212 187 201 191 173 185 194 172 195 183 185 166 197 191 197 190 193 153 177 183 187 178 184 203 220 204 224 247 277 231 219 231
258 242 248 232 225 237 217 225 213 221 216 197 214 200 196 186 192 187 183 181 174 180 186 180 176 186 184 185 182 182 158 165 196 197 173 178 190 195 190 208 259 217 250 235 230
249 238 231 246 233 245 251 214 217 217 222 202 214 202 196 198 186 195 180 181 187 181 182 192 170 167 188 174 186 182 182 190 170 169 170 165 177 187 206 191 205 234 250 235 235
250 232 227 246 234 237 232 233 247 238 226 219 208 196 201 192 196 193 187 189 187 158 186 178 170 158 178 178 181 176 194 186 156 169 198 168 191 186 202 208 206 228 264 255 242
252 241 232 243 236 223 218 221 223 225 221 207 201 214 202 192 188 198 187 191 189 177 178 189 164 155 182 182 172 180 195 180 185 182 195 192 180 181 198 196 196 200 262 237 248
239 233 241 231 230 232 228 226 221 214 214 201 216 191 207 205 195 191 193 198 186 179 186 188 194 201 151 182 158 177 187 178 174 171 182 171 167 178 179 179 186 200 220 268 212
242 238 225 241 237 222 227 228 224 212 200 196 206 192 200 199 197 193 196 193 195 190 189 187 188 188 185 175 170 195 179 187 174 199 183 160 177 167 189 196 193 217 190 206 274
239 245 238 235 239 231 217 225 223 194 207 202 197 210 195 205 199 197 184 196 187 187 180 183 184 185 181 185 149 170 195 177 167 169 190 182 154 190 173 191 185 197 207 225 215
236 238 241 235 238 228 229 225 224 217 212 215 201 200 197 197 208 211 196 198 200 192 178 182 172 175 182 186 188 158 182 186 177 206 205 189 189 164 176 168 191 182 197 192 170
277 254 238 246 234 243 234 228 234 214 217 87 204 201 204 200 197 198 199 183 198 191 185 186 187 186 188 189 173 180 187 180 185 206 209 192 195 173 174 169 199 172 207 199 161
292 285 260 254 249 233 225 233 218 240 223 208 209 112 194 207 224 197 197 191 188 195 193 186 186 187 189 183 196 187 193 193 188 202 207 195 158 172 167 171 199 172 188 191 186
266 287 271 273 255 251 239 217 224 209 220 232 220 183 201 209 214 214 204 204 198 200 200 194 183 189 194 193 190 193 191 192 193 221 208 175 200 165 166 179 168 178 174 190 187
287 297 271 264 284 270 245 239 233 148 216 89 226 179 229 208 202 207 209 207 191 201 202 194 197 196 191 195 194 193 195 198 191 204 185 167 199 157 178 182 168 191 178 182 193
399 416 260 278 278 284 273 241 241 238 223 238 225 215 201 213 209 198 206 134 212 205 207 203 204 201 199 196 194 199 202 195 197 207 200 167 193 203 190 170 187 173 190 198 187
391 401 403 298 180 140 83 182 114 234 231 237 236 223 224 222 215 213 211 209 201 210 211 212 197 196 197 203 204 196 197 196 196 209 216 197 206 157 210 160 181 189 193 190 196
374 389 394 323 303 282 286 280 264 266 217 234 238 177 187 226 224 223 210 212 221 221 214 216 212 208 202 204 207 201 196 208 201 214 221 219 209 175 212 164 177 193 187 189 188
348 353 306 305 309 320 92 286 281 292 265 266 239 185 233 231 233 228 224 224 223 218 213 218 210 207 204 204 204 205 197 195 212 209 215 207 214 166 204 202 167 169 190 182 191
371 361 337 316 339 315 314 344 296 111 280 145 266 221 233 233 231 221 140 228 219 224 236 221 216 218 215 214 214 213 212 205 208 210 204 219 207 207 202 192 161 168 188 181 186
Wind_Speed
94 68 80 72 62 69 70 66 71 69 63 60 66 58 59 69 52 62 58 66 39 57 42 37 31 31 32 37 40 38 44 51 51 53 46 38 38 22 12 19 26 21 31 31 29
98 71 74 61 84 72 67 69 70 70 79 59 57 68 63 58 57 51 55 41 43 46 41 36 34 31 32 32 34 39 40 42 54 42 43 39 32 18 17 24 25 25 38 31 37
97 72 91 84 67 69 75 59 74 66 56 65 66 66 70 65 60 48 50 39 50 47 44 43 32 30 38 31 33 34 32 38 52 43 42 43 33 26 25 24 25 28 36 38 44
67 98 72 64 67 66 57 77 78 71 68 64 63 61 57 63 59 46 59 41 37 40 40 39 38 32 28 28 28 24 30 39 37 41 41 43 28 20 24 21 27 29 41 40 45
68 68 90 72 75 76 84 76 74 72 73 67 59 63 53 64 61 50 56 46 41 34 32 32 29 29 26 24 34 28 33 38 43 45 41 36 36 20 23 19 15 36 36 32 43
85 84 83 71 83 89 91 79 66 70 69 66 62 55 65 62 55 49 51 43 42 40 33 30 32 25 23 24 24 32 31 33 38 35 42 32 33 29 21 14 12 14 35 46 43
63 76 71 66 94 77 61 78 58 71 67 59 53 58 53 64 50 55 54 45 41 35 31 28 25 34 22 24 26 27 28 33 42 35 38 39 29 30 18 23 21 16 25 23 48
48 60 59 58 59 68 65 64 69 59 60 61 53 54 56 58 50 54 40 44 40 37 29 33 28 22 23 25 25 30 27 30 36 34 33 37 28 27 26 20 22 18 20 24 17
49 49 58 57 58 62 65 66 59 63 57 52 56 50 59 53 50 50 53 46 39 37 32 27 26 27 19 31 24 21 25 23 31 36 34 28 25 31 30 25 21 18 17 20 16
43 47 52 54 61 62 64 65 62 59 57 52 52 55 59 54 54 54 50 42 44 41 36 32 41 31 22 25 24 23 32 31 26 28 34 33 39 36 31 29 22 22 16 11 9
45 48 49 58 60 65 62 66 63 57 54 57 51 54 60 55 56 52 53 46 43 41 40 33 39 26 24 29 30 30 45 42 30 32 32 28 35 29 24 29 23 21 12 14 14
47 49 55 59 57 59 70 66 67 60 58 57 56 57 62 62 52 57 55 49 44 46 36 39 47 31 30 36 29 27 28 28 41 31 32 28 29 29 34 25 26 24 16 20 18
51 54 55 54 57 46 53 56 58 56 51 53 58 57 63 54 59 60 54 50 48 50 47 48 43 44 38 36 33 30 36 27 27 34 31 37 31 32 33 27 26 24 15 22 20
53 57 57 57 60 61 64 60 54 52 53 60 58 60 59 55 55 68 57 56 50 49 44 51 46 49 41 41 33 37 34 28 26 31 38 32 34 30 32 28 26 21 19 17 21
59 59 61 65 65 64 61 62 58 58 50 59 58 53 56 58 68 68 66 55 50 54 49 52 50 42 46 47 37 42 25 33 30 33 27 28 32 35 29 20 24 27 24 19 17
67 66 64 71 69 65 68 67 63 62 56 58 59 53 57 60 64 67 58 57 58 56 52 50 51 43 46 44 37 47 33 35 31 32 35 27 30 34 32 29 29 25 20 21 16
73 73 72 71 75 75 68 69 66 51 60 61 58 63 59 64 66 69 58 60 58 56 49 55 50 43 41 48 43 38 37 33 36 37 38 32 28 25 36 29 28 27 23 22 14
75 76 75 81 78 76 73 70 70 66 66 67 63 60 61 63 66 67 70 64 63 55 54 51 55 51 52 54 45 42 36 38 38 40 41 38 31 25 31 31 27 26 25 20 18
87 83 82 83 81 82 79 71 71 68 70 18 68 68 71 68 70 66 64 56 64 62 58 56 62 62 58 58 46 43 44 50 36 38 39 39 41 26 28 35 31 26 23 23 22
86 89 89 93 85 82 72 73 67 73 74 68 69 36 64 72 77 74 72 66 64 69 67 58 61 66 64 48 56 44 51 48 39 41 40 41 33 30 30 32 33 30 30 24 25
80 84 86 96 90 86 79 68 75 67 78 83 86 66 69 71 72 80 76 77 75 75 72 69 59 68 62 51 58 60 52 48 41 44 41 36 46 33 34 32 30 31 30 27 25
82 80 79 83 92 91 81 84 86 49 84 25 82 61 84 78 69 71 76 79 70 77 78 70 70 74 62 64 58 51 56 56 43 46 42 43 47 37 38 32 32 31 30 30 23
56 51 69 81 73 79 87 88 92 92 87 93 88 78 72 80 77 71 76 31 82 81 85 82 78 75 75 65 59 66 67 60 54 53 43 45 51 51 38 37 36 34 32 29 29
46 46 50 72 41 34 21 55 24 94 90 97 94 90 87 88 83 79 82 82 78 82 84 85 73 70 74 80 80 69 68 64 55 52 51 50 53 35 49 36 38 36 36 34 30
40 38 39 55 65 73 76 81 82 91 86 95 94 59 72 93 89 90 84 86 89 89 84 85 85 80 76 82 80 75 67 69 56 58 49 52 56 51 53 44 42 38 39 36 33
35 33 49 53 56 58 19 72 76 83 89 97 98 71 94 96 97 96 94 98 98 89 84 87 83 80 76 81 80 72 63 63 71 59 52 52 57 54 59 53 39 42 41 42 34
23 27 36 46 43 50 49 50 67 11 80 41 95 73 95 99 94 84 37 94 86 87 90 84 82 88 87 89 88 79 79 72 72 70 58 53 60 63 64 52 43 43 44 43 41
Wind_Direction
272 268 272 273 278 289 270 272 276 265 270 265 268 269 271 268 274 272 273 275 286 278 282 288 288 284 280 283 288 295 293 296 302 304 315 322 327 318 257 248 260 224 214 209 195
270 261 269 274 267 269 273 269 279 274 267 266 261 266 269 268 271 267 273 278 281 281 286 290 292 287 283 285 287 289 295 301 298 325 319 334 333 307 264 232 276 224 210 213 194
295 259 278 284 275 280 262 263 274 271 263 259 261 266 269 269 269 269 270 275 275 279 281 283 289 286 282 284 288 289 299 308 297 324 312 334 333 326 320 286 226 228 211 213 200
266 283 273 277 272 270 266 263 272 264 267 260 265 267 255 261 267 267 260 270 275 277 291 283 282 288 283 281 283 291 296 293 320 324 333 332 332 317 277 336 249 239 221 215 204
283 271 277 271 269 276 276 270 265 266 261 257 261 272 249 259 262 269 268 267 275 280 286 288 289 282 276 277 284 284 289 291 309 297 328 332 332 313 272 323 313 257 248 276 215
265 281 270 271 268 273 270 267 253 258 259 257 254 255 265 257 259 263 267 269 270 274 275 279 280 279 276 277 289 284 294 302 291 306 319 326 335 333 289 316 291 299 257 236 250
264 268 251 246 263 258 251 262 239 253 255 253 259 253 249 251 254 259 265 267 272 271 283 285 275 269 277 280 286 286 292 283 294 314 314 328 334 341 304 275 280 288 286 266 238
259 249 241 233 230 250 241 237 246 245 249 252 246 244 245 244 251 254 259 262 266 268 273 267 269 269 270 284 282 293 288 294 291 303 308 326 332 340 337 308 268 271 276 266 248
261 238 234 230 246 234 236 241 242 247 244 244 248 248 242 241 241 248 253 261 265 268 268 263 262 263 273 262 282 292 288 296 295 299 304 317 316 336 337 329 298 273 265 280 271
246 243 239 246 252 248 232 242 245 243 247 242 243 245 246 237 242 251 252 255 260 265 262 263 257 277 278 289 280 289 277 286 290 297 302 311 320 339 339 341 324 294 268 266 273
243 237 228 234 241 235 244 242 248 247 244 240 241 238 238 242 239 238 244 248 249 263 258 261 258 253 269 277 272 273 278 281 300 301 301 306 318 334 330 333 328 331 262 287 285
236 235 238 238 236 239 232 245 243 241 241 235 234 232 236 239 245 238 246 251 247 253 254 262 248 239 280 253 282 271 279 297 282 289 293 295 313 319 331 331 340 325 260 283 283
237 244 244 237 232 231 240 239 235 225 226 229 228 232 235 242 239 241 244 245 245 251 254 250 245 246 258 265 268 260 284 285 285 280 295 298 307 310 325 340 337 341 298 253 262
240 238 245 232 233 232 239 237 228 233 223 227 229 232 235 236 242 240 241 239 240 242 242 259 241 254 259 259 250 274 282 270 281 283 295 299 295 307 328 331 329 332 323 315 255
245 243 239 236 233 230 232 229 229 227 223 234 227 237 230 232 235 243 238 241 240 241 248 252 262 261 262 259 252 264 273 267 259 274 279 282 295 302 305 310 319 331 337 309 315
240 240 247 234 233 237 233 230 226 229 225 232 235 236 233 231 234 240 240 242 238 240 242 247 253 254 254 255 257 276 254 276 267 287 277 272 284 302 305 312 316 346 316 325 311
242 239 237 239 235 235 241 235 231 225 226 235 236 234 237 231 238 240 238 241 241 238 236 239 248 253 255 266 256 272 271 254 263 265 273 271 261 282 293 304 310 317 331 343 328
246 239 238 239 236 240 238 237 234 231 231 231 236 238 241 243 236 234 238 236 240 242 237 243 237 237 249 259 257 265 253 267 253 291 272 268 266 268 284 281 299 303 312 301 278
237 238 239 236 238 236 238 236 234 236 237 238 235 236 237 241 243 243 239 236 232 236 239 240 247 248 252 257 252 250 271 263 257 287 269 264 268 258 271 282 299 287 318 318 248
244 238 237 236 232 237 241 237 238 235 237 241 241 248 235 238 233 239 241 242 246 242 242 241 246 252 253 249 265 260 268 272 258 282 274 265 257 254 260 267 294 284 294 289 290
249 243 240 237 237 235 235 240 237 239 239 234 239 242 243 239 237 235 238 240 243 244 243 246 245 253 256 260 262 261 260 265 269 283 271 261 267 254 255 257 263 271 275 284 287
248 246 241 242 238 236 234 235 237 236 240 247 239 240 237 241 240 240 238 238 243 245 246 247 248 251 252 255 258 262 269 271 261 273 245 248 264 253 244 251 254 268 267 269 288
244 241 238 239 238 237 235 231 234 236 240 238 241 239 237 241 239 237 241 241 242 244 244 246 249 250 255 257 259 267 268 263 260 269 254 251 258 256 244 247 257 256 266 266 258
238 234 230 239 229 234 222 235 227 235 238 240 240 240 242 243 243 242 240 240 241 244 244 244 243 245 252 256 259 257 259 260 261 274 263 258 255 236 257 247 248 257 264 259 271
230 228 227 229 232 233 231 232 230 231 232 237 238 240 243 243 242 243 244 245 245 243 243 245 247 248 250 255 256 256 255 264 263 270 264 252 252 250 257 245 247 258 257 260 258
224 221 226 226 226 226 214 231 230 231 232 235 236 238 237 239 241 242 242 244 246 246 244 246 246 248 249 252 254 253 254 256 265 264 259 254 247 246 256 253 243 249 255 259 262
202 201 213 222 210 224 224 216 224 243 232 237 235 235 238 237 237 239 248 243 244 247 250 246 246 250 253 255 256 258 261 257 260 261 251 253 247 246 252 247 243 248 251 256 262